Home > Weather > Busan > Past weeks

Flag for South Korea Weather for the Past 2 Weeks in Busan, South Korea

Now
72 °F

Sunny.


Feels Like: 76 °F
Forecast: 55 / 72 °F
Wind: 17 mph from South

Location: Pusan / Kimhae International Airport

Current Time: May 1, 2016 at 3:47:00 PM

Latest Report: May 1, 2016 at 3:00 PM


Visibility: 10 mi

Pressure: 29.95 "Hg

Humidity: 61%

Dew Point: 57 °F

Location of BusanLocation

Historic Weather in Busan — Graph

°F

Busan Temperature Yesterday

Maximum temperature yesterday: 70 °F (at 1:00 PM)
Minimum temperature yesterday: 50 °F (at 4:00 AM)
Average temperature yesterday: 61 °F

High & Low Weather Summary for the Past Weeks

 TemperatureHumidityPressure
High75 °F (Apr 26, 1:00 PM)100% (Apr 16, 11:00 PM)30.27 "Hg (Apr 16, 11:00 PM)
Low48 °F (Apr 20, 5:00 AM)23% (Apr 25, 11:00 AM)29.00 "Hg (Apr 21, 6:00 AM)
Average60 °F65%29.89 "Hg
* Reported Apr 16 2:00 PM — May 1 2:00 PM, Busan, Weather by CustomWeather, © 2016

Note: Actual official high and low records may vary slightly from our data, if they occured in-between our weather recording intervals... More about our weather records

Advertising

Busan Weather History for the Previous 24 Hours

Scroll right to see more
 ConditionsComfort  
Time TempWeatherWind HumidityBarometerVisibility
2:00 PM
Sun, May 1
72 °FSunny.20 mph61%29.98 "Hg10 mi
1:00 PM72 °FPassing clouds.17 mph53%29.98 "HgN/A
12:00 PM72 °FSunny.16 mph57%29.98 "Hg10 mi
11:00 AM70 °FScattered clouds.14 mph57%30.01 "HgN/A
10:00 AM66 °FScattered clouds.15 mph64%29.98 "HgN/A
9:00 AM64 °FSunny.10 mph68%30.01 "Hg10 mi
8:00 AM63 °FSunny.6 mph68%29.98 "Hg10 mi
7:00 AM61 °FSunny.2 mph72%29.98 "Hg10 mi
6:00 AM55 °FSunny.6 mph77%29.95 "Hg10 mi
5:00 AM54 °FClear.2 mph77%29.95 "Hg10 mi
4:00 AM59 °FClear.9 mph68%29.95 "Hg10 mi
3:00 AM59 °FClear.10 mph68%29.95 "Hg10 mi
2:00 AM61 °FClear.7 mph63%29.95 "Hg10 mi
1:00 AM61 °FClear.7 mph63%29.95 "Hg10 mi
12:00 AM61 °FClear.2 mph55%29.95 "Hg10 mi
11:00 PM
Sat, Apr 30
61 °FClear.6 mph59%29.95 "Hg10 mi
10:00 PM61 °FClear.2 mph52%29.95 "Hg10 mi
9:00 PM63 °FClear.3 mph56%29.95 "Hg10 mi
8:00 PM61 °FPassing clouds.7 mph72%29.92 "HgN/A
7:00 PM64 °FPassing clouds.10 mph60%29.89 "HgN/A
6:00 PM66 °FSunny.15 mph56%29.89 "Hg10 mi
5:00 PM68 °FSunny.16 mph49%29.89 "Hg10 mi
4:00 PM70 °FSunny.16 mph43%29.89 "Hg10 mi
3:00 PM70 °FSunny.17 mph50%29.89 "Hg10 mi
Weather by CustomWeather, © 2016

See weather overviewHow to use our weather pages